[[{"header":{"parameterUnit":"m.s-1","parameterCategory":1,"la1":30.2991,"la2":30.254,"lo1":-89.0895,"lo2":-89.0444,"dy":0.0017,"dx":0.0017,"nx":28,"ny":28,"refTime":"2023-11-08T03:00:00:Z","depth":0,"parameterNumber":2,"parameterNumberName":"U-component_of_WINDS"},"data":[0,0,0,0,0,0,0,0,0,0,0,0,0,0,0,0,0,0,0,0,0,0,0,0,0,0,0,0,0,0,0,0,0,0,0,0,0,0,0,0,0,0,0,0,0,0,0,0,0,0,0,0,0,0,0,0,0,0,0.299,0.2991,0,0.3023,0.3023,0.3024,0.3037,0.3037,0.3037,0.3037,0.3067,0.3068,0.3069,0,0,0,0,0,0,0,0,0,0,0,0,0,0.2936,0.2937,0.299,0.2991,0.2991,0.3023,0.3023,0.3024,0.3037,0.3037,0.3037,0.3037,0.3067,0.3068,0.3069,0,0,0,0,0,0,0,0,0,0,0,0,0,0.2963,0.2937,0.299,0.3001,0.3003,0.3023,0.3023,0.3024,0.3037,0.3037,0.3037,0.3036,0.3066,0.3068,0.3069,0.3079,0,0,0.3073,0.3074,0,0,0,0,0,0,0,0,0.2961,0.2965,0.2999,0.3001,0.3002,0.3026,0.3015,0.3042,0.3037,0.3024,0.3037,0.3036,0.3053,0.3056,0.3062,0.3081,0.3082,0.3073,0.3074,0.3075,0.3075,0,0,0,0,0,0,0,0.2959,0.2964,0.3003,0.3,0.3002,0.3004,0.3008,0.3021,0.3039,0.3025,0.3026,0.303,0.3054,0.3061,0.3063,0.3083,0.3073,0.3074,0.3075,0.3076,0.3111,0.3112,0,0,0,0,0,0,0.2956,0.2962,0.3002,0.3004,0.2981,0.3005,0.3009,0.3018,0.3039,0.3042,0.303,0.303,0.3058,0.3061,0.3064,0.3077,0.3074,0.3076,0.3076,0.3111,0.3111,0.3112,0,0,0,0,0,0,0.2955,0.296,0.3001,0.2983,0.2989,0.3006,0.3016,0.3019,0.3026,0.3042,0.3045,0.3034,0.3058,0.3062,0.3076,0.3079,0.3076,0.3078,0.3111,0.3111,0.3112,0.3104,0,0,0,0,0,0,0.2953,0.2959,0.2964,0.2983,0.299,0.3013,0.3016,0.302,0.3028,0.3029,0.3047,0.3049,0.3059,0.3074,0.3077,0.308,0.3079,0.3111,0.3111,0.3111,0.3105,0.3104,0.3104,0,0,0,0,0,0.2951,0.296,0.2964,0.2969,0.2996,0.3013,0.3016,0.3028,0.3029,0.3033,0.3044,0.3049,0.3078,0.3075,0.3079,0.3083,0.3111,0.3111,0.3111,0.3105,0.3104,0.3104,0,0,0,0,0,0,0.2939,0.2963,0.2968,0.2983,0.2996,0.3015,0.3021,0.3027,0.304,0.304,0.3053,0.3056,0.3069,0.3077,0.3073,0.3094,0.3095,0.3096,0.3088,0.3088,0.3088,0.3086,0.308,0,0,0,0,0,0.2939,0.2951,0.2971,0.2982,0.2989,0.3004,0.3012,0.3019,0.3033,0.3038,0.305,0.3062,0.3074,0.3081,0.3093,0.3106,0.3109,0.311,0.311,0.311,0.3111,0.3118,0.3119,0.3113,0.3113,0.3113,0,0,0.2937,0.2951,0.2958,0.298,0.2991,0.3003,0.3008,0.3021,0.303,0.304,0.3054,0.3063,0.3077,0.309,0.3096,0.3097,0.3113,0.311,0.311,0.3111,0.3118,0.3119,0.3119,0.3113,0.3113,0.3113,0,0,0.294,0.2952,0.2964,0.2975,0.2992,0.3002,0.3005,0.3023,0.303,0.3044,0.3052,0.3062,0.3082,0.3092,0.31,0.3107,0.3112,0.311,0.311,0.3117,0.3117,0.3118,0.312,0.3121,0.3111,0.3111,0.3111,0,0.2936,0.2955,0.2968,0.2981,0.299,0.3001,0.3012,0.3021,0.3041,0.3046,0.3047,0.3073,0.3084,0.3099,0.3101,0.3107,0.311,0.3108,0.3116,0.3117,0.3118,0.312,0.3121,0.3111,0.3111,0.3111,0.3111,0,0.2949,0.2962,0.2969,0.2989,0.2999,0.301,0.3024,0.3032,0.3039,0.3049,0.3063,0.3076,0.3091,0.3095,0.3101,0.3111,0.3111,0.3114,0.3115,0.3118,0.312,0.3121,0.311,0.311,0.3111,0.3111,0,0,0.2945,0.2973,0.2975,0.2984,0.3004,0.3014,0.3026,0.3041,0.3048,0.3061,0.307,0.3087,0.309,0.3099,0.3106,0.3112,0.3117,0.3114,0.3115,0.3114,0.3129,0.3127,0.3128,0.312,0.3121,0.3121,0.3128,0,0.2951,0.2974,0.2986,0.3003,0.3015,0.3026,0.3036,0.3048,0.3058,0.3069,0.3078,0.309,0.3093,0.3098,0.3105,0.3115,0.312,0.3115,0.3129,0.3129,0.3125,0.3129,0.3127,0.3133,0.3129,0.3129,0.3129,0,0.2961,0.2976,0.2994,0.3013,0.3018,0.3027,0.3042,0.3053,0.3067,0.3073,0.3083,0.3091,0.3102,0.3103,0.3119,0.3115,0.3121,0.3127,0.3128,0.3129,0.3129,0.3131,0.3135,0.3136,0.3131,0.3131,0.313,0,0.2957,0.2981,0.2995,0.3002,0.3024,0.303,0.3039,0.3054,0.3062,0.3075,0.308,0.3094,0.3101,0.3111,0.3122,0.3121,0.3137,0.3138,0.3142,0.3141,0.3145,0.3144,0.315,0.3149,0.3149,0.3149,0.3149,0,0.2962,0.2973,0.2993,0.3002,0.3015,0.3028,0.3039,0.3049,0.3062,0.3072,0.3081,0.309,0.3104,0.3114,0.3122,0.3134,0.3138,0.3142,0.3145,0.3142,0.3141,0.3146,0.3146,0.3149,0.3149,0.3149,0.3149,0,0.296,0.2974,0.299,0.301,0.3015,0.3023,0.3039,0.3048,0.3058,0.307,0.3074,0.3089,0.3102,0.3114,0.313,0.3136,0.3148,0.315,0.3143,0.3145,0.3148,0.3147,0.3157,0.3159,0.3156,0.3156,0.3156,0,0.2962,0.2971,0.2992,0.3,0.301,0.3022,0.3031,0.3045,0.3053,0.307,0.3077,0.309,0.3102,0.3122,0.3134,0.3147,0.315,0.3152,0.3151,0.3148,0.315,0.3149,0.315,0.3152,0.3152,0.3152,0.3152,0,0.2966,0.2972,0.2986,0.3001,0.3012,0.3025,0.3038,0.3043,0.3059,0.3068,0.3082,0.3091,0.3109,0.3122,0.3136,0.3145,0.315,0.3152,0.3153,0.3151,0.3146,0.3149,0.3143,0.3152,0.3152,0.3152,0.3152,0.3152,0.2966,0.2974,0.2991,0.3005,0.3016,0.3028,0.3037,0.3048,0.3061,0.3077,0.3083,0.3097,0.3111,0.3131,0.3139,0.315,0.3151,0.3153,0.3154,0.3154,0.3154,0.3145,0.3152,0.3152,0.3152,0.3152,0.3152,0,0.2969,0.2981,0.2994,0.3012,0.3023,0.3029,0.3043,0.3052,0.3065,0.3078,0.3089,0.3105,0.3118,0.3131,0.3145,0.315,0.3154,0.3154,0.3153,0.3155,0.3152,0.3149,0.3151,0.3151,0.3151,0.3151,0.3151,0.3151,0.2973,0.2988,0.2996,0.3016,0.3027,0.3042,0.3049,0.306,0.307,0.3088,0.3099,0.3108,0.3121,0.3135,0.3147,0.3151,0.3155,0.3154,0.3158,0.3155,0.3155,0.3155,0.3153,0.3155,0.3155,0.3161,0.3161,0.3161]},{"header":{"parameterUnit":"m.s-1","parameterCategory":1,"la1":30.2991,"la2":30.254,"lo1":-89.0895,"lo2":-89.0444,"dy":0.0017,"dx":0.0017,"nx":28,"ny":28,"refTime":"2023-11-08T03:00:00:Z","depth":0,"parameterNumber":3,"parameterNumberName":"V-component_of_WINDS"},"data":[0,0,0,0,0,0,0,0,0,0,0,0,0,0,0,0,0,0,0,0,0,0,0,0,0,0,0,0,0,0,0,0,0,0,0,0,0,0,0,0,0,0,0,0,0,0,0,0,0,0,0,0,0,0,0,0,0,0,2.5427,2.5426,0,2.5333,2.5332,2.5331,2.5275,2.5274,2.5274,2.5274,2.5174,2.5172,2.517,0,0,0,0,0,0,0,0,0,0,0,0,0,2.5558,2.5556,2.5428,2.5426,2.5425,2.5333,2.5332,2.5331,2.5275,2.5274,2.5274,2.5274,2.5175,2.5172,2.5169,0,0,0,0,0,0,0,0,0,0,0,0,0,2.5486,2.5555,2.5428,2.5386,2.5382,2.5333,2.5332,2.533,2.5275,2.5274,2.5274,2.5274,2.5176,2.5173,2.5169,2.5154,0,0,2.5158,2.5156,0,0,0,0,0,0,0,0,2.549,2.5482,2.5394,2.5389,2.5384,2.5315,2.5341,2.5271,2.5275,2.5315,2.5274,2.5274,2.5221,2.5214,2.5197,2.5149,2.5145,2.5157,2.5155,2.5154,2.5153,0,0,0,0,0,0,0,2.5495,2.5485,2.539,2.5392,2.5386,2.5372,2.5361,2.5328,2.5271,2.5312,2.5307,2.5297,2.5219,2.5201,2.5194,2.5143,2.5158,2.5154,2.5152,2.5151,2.508,2.5081,0,0,0,0,0,0,2.5507,2.549,2.5393,2.5387,2.5437,2.537,2.5358,2.5338,2.5272,2.5261,2.5298,2.5295,2.5207,2.5198,2.519,2.5169,2.5154,2.515,2.5148,2.508,2.5081,2.5081,0,0,0,0,0,0,2.551,2.5499,2.5397,2.5437,2.5423,2.5368,2.5346,2.5336,2.5318,2.5261,2.525,2.529,2.5206,2.5196,2.5164,2.5165,2.5149,2.5145,2.508,2.508,2.5081,2.5127,0,0,0,0,0,0,2.5514,2.5501,2.5494,2.5438,2.5421,2.5372,2.5346,2.5334,2.5312,2.5308,2.5251,2.5241,2.5205,2.517,2.516,2.516,2.5143,2.5079,2.508,2.5081,2.5125,2.5129,2.5132,0,0,0,0,0,2.5519,2.551,2.5494,2.5483,2.5412,2.5372,2.5363,2.5323,2.5312,2.5306,2.527,2.5243,2.5167,2.5167,2.5156,2.5154,2.5079,2.508,2.508,2.5123,2.5128,2.5132,0,0,0,0,0,0,2.5566,2.5502,2.5484,2.5456,2.5421,2.5363,2.5353,2.5329,2.5295,2.5292,2.5243,2.5231,2.5204,2.5176,2.5177,2.5137,2.512,2.5119,2.5157,2.5161,2.5164,2.5171,2.5139,0,0,0,0,0,2.5574,2.5548,2.5492,2.5473,2.5456,2.5408,2.5389,2.5362,2.5323,2.5307,2.5268,2.5231,2.5198,2.5178,2.5145,2.5121,2.5109,2.5115,2.5119,2.5122,2.5121,2.5108,2.5111,2.5083,2.5083,2.5083,0,0,2.5589,2.555,2.5536,2.5482,2.5451,2.5425,2.5396,2.5368,2.5348,2.5302,2.5271,2.5241,2.5196,2.5169,2.5155,2.5145,2.5126,2.5123,2.5126,2.5123,2.5109,2.5112,2.5114,2.5084,2.5084,2.5084,0,0,2.5602,2.557,2.5551,2.5522,2.5476,2.5445,2.5441,2.5388,2.5367,2.5335,2.53,2.5276,2.5221,2.5191,2.5168,2.5174,2.5148,2.5164,2.5183,2.5171,2.5173,2.5175,2.5178,2.5179,2.5164,2.5164,2.5164,0,2.5625,2.5585,2.5544,2.552,2.5498,2.5457,2.5438,2.5411,2.5357,2.5342,2.5332,2.5264,2.523,2.5197,2.5199,2.5181,2.5175,2.517,2.5176,2.5177,2.5178,2.5181,2.5182,2.5166,2.5166,2.5166,2.5165,0,2.5617,2.5589,2.558,2.5531,2.5507,2.5485,2.5442,2.5423,2.5399,2.5368,2.5337,2.5296,2.5255,2.5245,2.522,2.5208,2.5204,2.5186,2.5167,2.5184,2.5185,2.5186,2.5169,2.5169,2.5168,2.5167,0,0,2.5655,2.5586,2.5583,2.5561,2.5509,2.5487,2.5464,2.5426,2.5411,2.5376,2.5356,2.5312,2.5296,2.527,2.5242,2.5231,2.524,2.5215,2.5213,2.5221,2.5226,2.524,2.5242,2.5223,2.5223,2.5223,2.523,0,2.5661,2.5619,2.5583,2.5554,2.5529,2.5491,2.5472,2.5438,2.541,2.5384,2.5352,2.5323,2.5303,2.5288,2.5276,2.5242,2.524,2.5241,2.5204,2.5204,2.5217,2.5242,2.5256,2.5265,2.523,2.523,2.523,0,2.5661,2.563,2.5599,2.5552,2.554,2.5523,2.5486,2.5462,2.5424,2.5404,2.5378,2.5349,2.5323,2.5309,2.5274,2.5275,2.5258,2.5239,2.5239,2.5233,2.5218,2.5238,2.5266,2.5268,2.5231,2.5231,2.5231,0,2.5693,2.5643,2.5618,2.5601,2.5545,2.5534,2.5511,2.5472,2.5452,2.5419,2.5406,2.5371,2.5352,2.5325,2.5288,2.528,2.5257,2.5239,2.5241,2.5242,2.5237,2.5237,2.5263,2.5226,2.5226,2.5226,2.5226,0,2.5704,2.5686,2.5633,2.5617,2.5598,2.5557,2.5538,2.5511,2.5478,2.5457,2.5422,2.5403,2.5355,2.533,2.5301,2.5277,2.5268,2.5252,2.5244,2.5255,2.5257,2.5243,2.5242,2.5226,2.5226,2.5226,2.5226,0,2.5735,2.5699,2.567,2.562,2.5608,2.5595,2.5553,2.5537,2.5508,2.5482,2.5474,2.5428,2.5398,2.5359,2.5315,2.5296,2.5276,2.5264,2.5289,2.5284,2.5289,2.5289,2.5306,2.5306,2.527,2.527,2.527,0,2.5744,2.5731,2.5681,2.5665,2.5643,2.5617,2.5598,2.5558,2.5539,2.5495,2.5485,2.5453,2.5424,2.5378,2.534,2.5308,2.5295,2.5303,2.529,2.5302,2.5296,2.5297,2.5296,2.5306,2.5307,2.5307,2.5308,0,2.5764,2.5748,2.5721,2.5688,2.5666,2.5638,2.5608,2.5597,2.5552,2.5532,2.5501,2.548,2.5437,2.5405,2.5369,2.5344,2.5319,2.5313,2.5312,2.5322,2.5338,2.533,2.5298,2.5312,2.5312,2.5311,2.5311,2.5311,2.5785,2.5772,2.5735,2.5707,2.5681,2.5655,2.5639,2.5609,2.5583,2.5546,2.5524,2.5495,2.5459,2.5407,2.5384,2.536,2.535,2.5348,2.5348,2.5348,2.5352,2.5342,2.5353,2.5353,2.5353,2.5353,2.5353,0,2.5804,2.5779,2.5754,2.5715,2.5693,2.5673,2.564,2.5623,2.5598,2.5567,2.5541,2.5507,2.5477,2.5438,2.5406,2.5395,2.5382,2.5387,2.5388,2.5383,2.5362,2.5367,2.5398,2.5398,2.5398,2.5398,2.5398,2.5398,2.5811,2.5788,2.5767,2.5732,2.5707,2.5679,2.5662,2.5638,2.5614,2.5578,2.5553,2.5529,2.5495,2.546,2.5432,2.5422,2.5412,2.5421,2.5407,2.5388,2.5384,2.538,2.5384,2.5419,2.5419,2.5429,2.5429,2.5429]}]]